Weather History for KMDH - July, 2013

Change the Weather History Date:

Tuesday, July 9, 2013

  Actual Average (WUND) Record (WUND)
Temperature  
Mean Temperature 83 °F -  
Max Temperature 91 °F - - (-1)
Min Temperature 75 °F - - (-1)
Cooling Degree Days 18    
Growing Degree Days 33 (Base 50)    
Moisture  
Dew Point 73 °F    
Average Humidity 72    
Maximum Humidity 85    
Minimum Humidity 55    
Precipitation  
Precipitation 0.00 in - - ()
Sea Level Pressure  
Sea Level Pressure 30.03 in    
Wind  
Wind Speed 7 mph (SSW)    
Max Wind Speed 13 mph    
Max Gust Speed 18 mph    
Visibility 10 miles    
Events      
Averages and records for this station are not official NWS values.
T = Trace of Precipitation, MM = Missing Value Source: NWS Daily Summary

Daily Weather History Graph

Daily Weather History Graph

Search for Another Location

Airport or City:

Trip Planner

Search our weather history database for the weather conditions in past years. The results will help you decide how hot, cold, wet, or windy it might be!

Date:

Astronomy

Jul. 09, 2013 Rise Set
Actual Time 5:43 AM CDT 8:21 PM CDT
Civil Twilight 5:12 AM CDT 8:51 PM CDT
Nautical Twilight 4:34 AM CDT 9:30 PM CDT
Astronomical Twilight 3:51 AM CDT 10:12 PM CDT
Moon 7:05 AM CDT (7/9) 9:01 PM CDT (7/9)
Length of Visible Light 15h 39m
Length of Day
14h 37m
New Moon, 2% of the Moon is Illuminated
Jul 9
New Moon
Jul 15
First Quarter
Jul 22
Full
Jul 29
Last Quarter
Aug 6
New

Hourly Weather History & Observations

Time (CDT) Temp. Heat Index Dew Point Humidity Pressure Visibility Wind Dir Wind Speed Gust Speed Precip Events Conditions
12:52 AM 78.1 °F - 71.1 °F 79% 30.07 in 10.0 mi South 3.5 mph - N/A   Clear
1:52 AM 77.0 °F - 72.0 °F 84% 30.07 in 10.0 mi South 5.8 mph - N/A   Clear
2:52 AM 77.0 °F - 72.0 °F 84% 30.06 in 10.0 mi SSW 4.6 mph - N/A   Clear
3:52 AM 75.9 °F - 71.1 °F 85% 30.06 in 10.0 mi South 4.6 mph - N/A   Clear
4:52 AM 75.9 °F - 70.0 °F 82% 30.07 in 10.0 mi South 5.8 mph - N/A   Clear
5:52 AM 75.0 °F - 70.0 °F 84% 30.06 in 10.0 mi SSW 6.9 mph - N/A   Clear
6:52 AM 75.9 °F - 71.1 °F 85% 30.06 in 10.0 mi South 3.5 mph - N/A   Clear
7:52 AM 79.0 °F - 73.0 °F 82% 30.07 in 10.0 mi SSW 6.9 mph - N/A   Clear
8:52 AM 82.0 °F 87.9 °F 73.9 °F 76% 30.07 in 10.0 mi SSW 6.9 mph - N/A   Clear
9:52 AM 82.9 °F 89.4 °F 73.9 °F 74% 30.07 in 10.0 mi SSW 9.2 mph - N/A   Clear
10:52 AM 86.0 °F 95.1 °F 75.0 °F 70% 30.06 in 10.0 mi SW 9.2 mph - N/A   Scattered Clouds
11:52 AM 89.1 °F 98.0 °F 73.9 °F 61% 30.07 in 10.0 mi South 11.5 mph - N/A   Scattered Clouds
12:52 PM 91.0 °F 100.4 °F 73.9 °F 57% 30.04 in 10.0 mi SW 11.5 mph - N/A   Scattered Clouds
1:52 PM 91.0 °F 100.4 °F 73.9 °F 57% 30.03 in 10.0 mi SSW 12.7 mph 18.4 mph N/A   Scattered Clouds
2:52 PM 91.9 °F 101.3 °F 73.9 °F 55% 30.02 in 10.0 mi SSW 10.4 mph - N/A   Partly Cloudy
3:52 PM 91.0 °F 99.3 °F 73.0 °F 55% 30.00 in 10.0 mi SSW 9.2 mph - N/A   Mostly Cloudy
4:52 PM 91.0 °F 99.3 °F 73.0 °F 55% 29.98 in 10.0 mi SSW 10.4 mph - N/A   Mostly Cloudy
5:52 PM 89.1 °F 98.0 °F 73.9 °F 61% 29.96 in 10.0 mi SSW 8.1 mph - N/A   Clear
6:52 PM 89.1 °F 98.0 °F 73.9 °F 61% 29.96 in 10.0 mi SSW 9.2 mph - N/A   Clear
7:52 PM 84.9 °F 93.3 °F 75.0 °F 72% 29.96 in 10.0 mi South 5.8 mph - N/A   Clear
8:52 PM 82.0 °F 87.9 °F 73.9 °F 76% 29.96 in 10.0 mi South 4.6 mph - N/A   Clear
9:52 PM 81.0 °F 86.2 °F 73.9 °F 79% 29.97 in 10.0 mi South 4.6 mph - N/A   Clear
10:52 PM 80.1 °F 84.2 °F 73.0 °F 79% 29.97 in 10.0 mi South 8.1 mph - N/A   Clear
11:52 PM 81.0 °F 85.8 °F 73.0 °F 77% 29.98 in 10.0 mi SSW 6.9 mph - N/A   Clear